Bookmark and Share
Track history (hours):
 

Paulistana II

Last reported at 2014-Apr-21 07:15 UTC. Time now 2014-Apr-21 10:18 UTC.
Position N 25°45' E 119°39'.

Length 6 m.

Type: Pollution control. MMSI: 316014038.

NotesDate/timePositionNaut miles runAvg speedWind from/ knotsBaromVisibWave heightAir tempDewpointWater temp
2014-Apr-21 07:15N 25°45' E 119°39'382416.0
2014-Apr-21 06:20N 32°07' E 119°55'5 4.3
2014-Apr-21 05:13N 32°03' E 119°57'3 4.3
2014-Apr-21 04:29N 31°60' E 119°60'374392.6
2014-Apr-21 03:31N 25°46' E 119°40'3722820.7
2014-Apr-21 03:23N 31°58' E 120°05'4 4.9
2014-Apr-21 02:33N 31°57' E 120°09'6 5.7
2014-Apr-21 01:33N 31°57' E 120°16'6 6.4
2014-Apr-21 00:33N 31°60' E 120°23'7 6.8
2014-Apr-20 23:33N 32°02' E 120°30'7 7.3
2014-Apr-20 22:32N 32°00' E 120°39'6 5.6
2014-Apr-20 21:33N 32°03' E 120°45'18 0.9
2014-Apr-20 00:15N 31°60' E 120°23'5420756.8
2014-Apr-19 17:05N 48°21' W 123°21'3 5.6
2014-Apr-19 16:34N 48°23' W 123°23'5875154.6
2014-Apr-18 02:33N 24°39' E 118°26'6 5.7
2014-Apr-18 01:33N 24°34' E 118°29'1 0.6
2014-Apr-18 00:31N 24°33' E 118°30'0 0.1
2014-Apr-17 23:31N 24°33' E 118°30'0 0.0
2014-Apr-17 21:31N 24°33' E 118°30'0 0.0
2014-Apr-17 20:19N 24°33' E 118°30'369476.8
2014-Apr-17 19:33N 29°49' E 122°05'3691631.0
2014-Apr-17 19:19N 24°33' E 118°30'375473.9
2014-Apr-17 18:32N 29°55' E 122°06'144 5.7
2014-Apr-16 17:13N 32°00' E 120°41'3 3.3
2014-Apr-16 16:26N 32°01' E 120°44'37 6.2
2014-Apr-16 10:31N 31°59' E 120°01'6 5.9
2014-Apr-16 09:29N 31°57' E 120°08'1149.6
2014-Apr-16 09:16N 31°59' E 120°20'2 2.8
2014-Apr-16 08:33N 31°58' E 120°19'4134.7
2014-Apr-16 08:31N 31°57' E 120°15'1 0.7
2014-Apr-16 07:29N 31°56' E 120°15'827.2
2014-Apr-16 07:12N 32°01' E 120°23'3 5.3
2014-Apr-16 06:33N 32°03' E 120°26'15480.0
2014-Apr-16 06:31N 31°56' E 120°11'21 5.4
2014-Apr-16 02:33N 32°02' E 120°35'0 0.0
2014-Apr-16 01:32N 32°02' E 120°35'0 0.1
2014-Apr-16 00:33N 32°02' E 120°35'4301916.1
2014-Apr-16 00:19N 38°52' E 117°60'430549.7
2014-Apr-15 23:32N 32°02' E 120°35'0 0.0
2014-Apr-15 22:33N 32°02' E 120°35'4401475.7
2014-Apr-15 22:15N 38°59' E 117°42'440629.8
2014-Apr-15 21:34N 32°02' E 120°35'435120567.0
2014-Apr-15 21:33N 38°56' E 117°49'435435.5
2014-Apr-15 20:33N 32°02' E 120°35'540689268.3
2014-Apr-15 20:30N 49°17' W 122°51'54065759.2
2014-Apr-15 19:33N 32°02' E 120°35'0 0.0
2014-Apr-15 18:33N 32°02' E 120°35'0 0.0
2014-Apr-15 17:18N 32°02' E 120°35'0 0.0
2014-Apr-15 15:28N 32°02' E 120°35'0 0.0
2014-Apr-15 14:33N 32°02' E 120°35'176963.7
2014-Apr-15 14:22N 29°33' E 122°22'17697.2
2014-Apr-15 12:34N 32°02' E 120°35'169168.1
2014-Apr-15 11:34N 29°45' E 122°29'16931934.8
2014-Apr-15 11:34N 32°02' E 120°35'1 0.5
2014-Apr-15 10:34N 32°02' E 120°34'16416426.6
2014-Apr-15 10:33N 29°53' E 122°33'9 9.1
2014-Apr-15 09:33N 30°02' E 122°34'1589635.7
2014-Apr-15 09:33N 32°02' E 120°34'0 0.0
2014-Apr-15 07:34N 32°02' E 120°34'0 0.0
2014-Apr-15 06:32N 32°02' E 120°34'0 0.0
2014-Apr-15 05:33N 32°02' E 120°34'1233107.8
2014-Apr-15 05:31N 30°39' E 122°21'12362.7
2014-Apr-15 03:33N 32°02' E 120°34'0 0.0
2014-Apr-15 02:33N 32°02' E 120°34'0 0.0
2014-Apr-15 01:33N 32°02' E 120°34'0 0.0
2014-Apr-14 23:34N 32°02' E 120°34'0 0.0
2014-Apr-14 22:31N 32°02' E 120°34'7073.5
2014-Apr-14 21:34N 31°20' E 121°41'7022901.6
2014-Apr-14 21:33N 32°02' E 120°34'6059.8
2014-Apr-14 20:33N 31°26' E 121°30'601760.8
2014-Apr-14 20:31N 32°02' E 120°34'0 0.0
2014-Apr-14 19:34N 32°02' E 120°34'0 0.0
2014-Apr-14 18:33N 32°02' E 120°34'0 0.1
2014-Apr-14 17:34N 32°02' E 120°34'0 0.0
2014-Apr-14 15:33N 32°02' E 120°34'2544816.8
2014-Apr-14 15:33N 31°47' E 120°58'7 7.1
2014-Apr-14 14:33N 31°53' E 120°53'181472.2
2014-Apr-14 14:33N 32°02' E 120°34'0 0.1
2014-Apr-14 13:34N 32°02' E 120°34'11637.3
2014-Apr-14 13:33N 32°01' E 120°47'19 9.5
2014-Apr-14 11:34N 32°02' E 120°25'81213.4
2014-Apr-14 11:33N 32°02' E 120°34'1817.7
2014-Apr-14 10:34N 31°56' E 120°15'18664.9
2014-Apr-14 10:32N 32°02' E 120°35'2728.2
2014-Apr-14 09:33N 31°58' E 120°03'9 8.5
2014-Apr-14 08:31N 32°04' E 119°56'341196.9
2014-Apr-14 08:29N 32°02' E 120°35'1 0.7
2014-Apr-14 07:33N 32°01' E 120°36'43226.3
2014-Apr-13 15:07N 38°55' E 117°60'432269.6
2014-Apr-13 13:31N 31°57' E 120°18'6 5.8
2014-Apr-13 12:33N 31°56' E 120°12'4281151.2
2014-Apr-13 12:11N 38°50' E 118°01'43164.4
2014-Apr-13 05:29N 32°02' E 120°51'445102.6
2014-Apr-13 01:09N 39°04' E 117°56'3 3.0
2014-Apr-13 00:12N 39°01' E 117°54'428635.8
2014-Apr-12 23:32N 32°05' E 119°56'42815879.8
2014-Apr-12 23:30N 39°01' E 117°54'432456.5
2014-Apr-12 22:33N 32°01' E 119°59'5 5.2
2014-Apr-12 21:33N 31°58' E 120°04'6 6.0
2014-Apr-12 20:33N 31°57' E 120°11'54305460.4
2014-Apr-12 19:33N 48°24' W 123°21'5423750898.7
2014-Apr-12 19:33N 31°58' E 120°18'4381172.7
2014-Apr-12 19:11N 39°00' E 117°54'51868383.5
2014-Apr-12 18:33N 48°24' W 123°15'5420256733.9
2014-Apr-12 18:32N 32°01' E 120°26'54265500.9
2014-Apr-12 17:33N 48°25' W 123°06'542030156.7
2014-Apr-12 17:22N 32°01' E 120°35'4392154.8
2014-Apr-12 17:10N 39°00' E 117°54'441718.4
2014-Apr-12 16:33N 32°00' E 120°42'5421309768.1
2014-Apr-12 16:32N 48°27' W 122°57'6 6.5
2014-Apr-12 15:33N 48°33' W 123°01'0 0.3
2014-Apr-12 14:28N 48°32' W 123°01'0 0.0
2014-Apr-12 13:31N 48°32' W 123°01'0 0.0
2014-Apr-12 12:31N 48°32' W 123°01'0 0.0
2014-Apr-12 11:31N 48°32' W 123°01'519111136.9
2014-Apr-12 11:03N 39°00' E 117°54'51919723.0
2014-Apr-12 10:31N 48°32' W 123°01'0 0.0
2014-Apr-12 09:31N 48°32' W 123°01'519178191.0
2014-Apr-12 09:27N 39°00' E 117°54'51915565.1
2014-Apr-12 08:31N 48°32' W 123°01'0 0.0
2014-Apr-12 07:28N 48°32' W 123°01'542033638.6
2014-Apr-12 07:19N 31°60' E 120°37'71050.4
2014-Apr-12 07:18N 32°02' E 120°44'44313083.2
2014-Apr-12 07:16N 39°03' E 117°55'351.7
2014-Apr-12 07:12N 39°00' E 117°54'4394800.8
2014-Apr-12 07:07N 32°04' E 120°45'54109147.6
2014-Apr-12 06:31N 48°32' W 123°01'0 0.0
2014-Apr-12 05:31N 48°32' W 123°01'0 0.0
2014-Apr-12 04:31N 48°32' W 123°01'519122062.9
2014-Apr-12 04:17N 39°00' E 117°54'436596.5
2014-Apr-12 03:33N 32°02' E 120°28'5424166899.5
2014-Apr-12 03:31N 48°32' W 123°01'54315432.6
2014-Apr-12 02:31N 31°59' E 120°22'54319775922.1
2014-Apr-12 02:31N 48°32' W 123°01'51901437290.8
2014-Apr-12 02:31N 39°01' E 117°54'439450.1
2014-Apr-12 01:33N 31°59' E 120°21'5432260728.8
2014-Apr-12 01:32N 48°32' W 123°01'518922535.1
2014-Apr-12 01:18N 39°02' E 117°54'4904829.9
2014-Apr-12 01:12N 31°25' E 121°31'54078083.6
2014-Apr-12 00:31N 48°32' W 123°01'519035587.1
2014-Apr-12 00:23N 39°01' E 117°54'4398027.9
2014-Apr-12 00:19N 31°59' E 120°21'54326042.8
2014-Apr-11 23:26N 48°32' W 123°01'5190381277.0
2014-Apr-11 23:25N 39°02' E 117°54'0 0.6
2014-Apr-11 22:32N 39°01' E 117°54'5190491680.2
2014-Apr-11 22:32N 48°32' W 123°01'51915194.2
2014-Apr-11 21:32N 39°03' E 117°51'4414215.1
2014-Apr-11 21:25N 31°59' E 120°21'54326065.3
2014-Apr-11 20:32N 48°32' W 123°01'5432425105.9
2014-Apr-11 20:31N 31°59' E 120°21'4415077.2
2014-Apr-11 20:26N 39°03' E 117°51'441505.1
2014-Apr-11 19:33N 31°59' E 120°21'5432208030.3
2014-Apr-11 19:32N 48°32' W 123°01'519147433.6
2014-Apr-11 19:25N 39°03' E 117°51'441514.6
2014-Apr-11 18:34N 31°59' E 120°21'5432164327.0
2014-Apr-11 18:32N 48°32' W 123°01'5191549666.3
2014-Apr-11 18:31N 39°03' E 117°51'441451.0
2014-Apr-11 17:32N 31°59' E 120°21'543288886.0
2014-Apr-11 17:29N 48°32' W 123°01'519186521.5
2014-Apr-11 17:25N 39°03' E 117°51'441512.8
2014-Apr-11 16:33N 31°59' E 120°21'5432188027.4
2014-Apr-11 16:32N 48°32' W 123°01'5191491806.1
2014-Apr-11 16:31N 39°03' E 117°51'865722277.2
2014-Apr-11 16:08N 41°37' W 071°24'923115992.2
2014-Apr-11 15:33N 31°59' E 120°21'5432232793.9
2014-Apr-11 15:32N 48°32' W 123°01'5191263222.3
2014-Apr-11 15:30N 39°03' E 117°51'0 0.0
2014-Apr-11 14:30N 39°03' E 117°51'44163567.7
2014-Apr-11 14:30N 31°59' E 120°21'5432238471.7
2014-Apr-11 14:29N 48°32' W 123°01'222615994.1
2014-Apr-11 14:20N 41°37' W 071°24'923111792.6
2014-Apr-11 13:33N 31°59' E 120°21'5432199537.6
2014-Apr-11 13:32N 48°32' W 123°01'519142766.0
2014-Apr-11 13:24N 39°03' E 117°51'441511.2
2014-Apr-11 12:33N 31°59' E 120°21'5432355539.3
2014-Apr-11 12:32N 48°32' W 123°01'519123448.9
2014-Apr-11 12:18N 39°03' E 117°51'441570.5
2014-Apr-11 11:32N 31°59' E 120°21'54321029184.9
2014-Apr-11 11:32N 48°32' W 123°01'519195350.8
2014-Apr-11 11:28N 39°03' E 117°51'443479.0
2014-Apr-11 10:33N 31°56' E 120°16'5438254238.3
2014-Apr-11 10:32N 48°32' W 123°01'541988268.0
2014-Apr-11 10:28N 31°60' E 120°38'44516334.4
2014-Apr-11 10:26N 39°03' E 117°51'442500.8
2014-Apr-11 09:33N 32°01' E 120°33'5421193236.5
2014-Apr-11 09:32N 48°32' W 123°01'519022428.6
2014-Apr-11 09:18N 39°02' E 117°54'58546829.4
2014-Apr-11 09:17N 29°55' E 122°08'159868.5
2014-Apr-11 09:06N 31°56' E 120°08'1833.7
2014-Apr-11 08:33N 32°02' E 120°28'5424207730.6
2014-Apr-11 08:32N 48°32' W 123°01'5198149693.6
2014-Apr-11 08:30N 38°55' E 117°51'5854498.5
2014-Apr-11 08:22N 29°49' E 122°05'158194.9
2014-Apr-11 07:33N 31°60' E 120°23'43214968.1
2014-Apr-11 07:32N 38°55' E 117°54'5196109384.5
2014-Apr-11 07:29N 48°32' W 123°01'  

Dump ship's entire track history

sailing weather and tide predictions

Paulistana II — 00 — position and weather